Tiempo cada hora Almedijar

Hoy, 27 Julio, Martes

Tiempo Temperatura Precipitaciones Viento Presión Humedad
00:00 +20°C° 0 mm 1 mps 717 mmHg 84%
01:00 +20°C° 0 mm 1 mps 717 mmHg 82%
02:00 +20°C° 0 mm 1 mps 717 mmHg 81%
03:00 +20°C° 0 mm 1 mps 717 mmHg 79%
04:00 +20°C° 0 mm 1 mps 717 mmHg 77%
05:00 +21°C° 0 mm 1 mps 717 mmHg 74%
06:00 +21°C° 0 mm 1 mps 717 mmHg 72%
07:00 +23°C° 0 mm 1 mps 717 mmHg 65%
08:00 +25°C° 0 mm 1 mps 717 mmHg 58%
09:00 +26°C° 0 mm 2 mps 718 mmHg 51%
10:00 +28°C° 0 mm 2 mps 717 mmHg 46%
11:00 +29°C° 0 mm 3 mps 717 mmHg 41%
12:00 +32°C° 0 mm 4 mps 717 mmHg 36%
13:00 +32°C° 0 mm 4 mps 717 mmHg 36%
14:00 +32°C° 0 mm 5 mps 716 mmHg 36%
15:00 +33°C° 0 mm 5 mps 716 mmHg 37%
16:00 +30°C° 0 mm 5 mps 716 mmHg 42%
17:00 +29°C° 0 mm 4 mps 715 mmHg 48%
18:00 +27°C° 0 mm 3 mps 715 mmHg 54%
19:00 +26°C° 0 mm 2 mps 715 mmHg 61%
20:00 +24°C° 0 mm 1 mps 716 mmHg 68%
21:00 +21°C° 0 mm 0 mps 716 mmHg 75%
22:00 +23°C° 0 mm 1 mps 716 mmHg 73%
23:00 +23°C° 0 mm 1 mps 716 mmHg 71%

Mañana, 28 Julio, Miércoles

Tiempo Temperatura Precipitaciones Viento Presión Humedad
00:00 +23°C° 0 mm 1 mps 716 mmHg 69%
01:00 +23°C° 0 mm 1 mps 715 mmHg 67%
02:00 +23°C° 0 mm 1 mps 715 mmHg 64%
03:00 +22°C° 0 mm 1 mps 715 mmHg 62%
04:00 +23°C° 0 mm 1 mps 715 mmHg 62%
05:00 +23°C° 0 mm 1 mps 715 mmHg 62%
06:00 +23°C° 0 mm 1 mps 716 mmHg 62%
07:00 +25°C° 0 mm 1 mps 716 mmHg 58%
08:00 +26°C° 0 mm 2 mps 716 mmHg 53%
09:00 +28°C° 0 mm 2 mps 717 mmHg 49%
10:00 +29°C° 0 mm 3 mps 717 mmHg 47%
11:00 +30°C° 0 mm 4 mps 717 mmHg 45%
12:00 +32°C° 0 mm 5 mps 717 mmHg 43%
13:00 +32°C° 0 mm 5 mps 717 mmHg 44%
14:00 +32°C° 0 mm 5 mps 716 mmHg 44%
15:00 +32°C° 0 mm 5 mps 716 mmHg 45%
16:00 +30°C° 0 mm 4 mps 716 mmHg 49%
17:00 +29°C° 0 mm 3 mps 716 mmHg 52%
18:00 +28°C° 0 mm 3 mps 716 mmHg 56%
19:00 +27°C° 0 mm 2 mps 716 mmHg 63%
20:00 +25°C° 0 mm 1 mps 716 mmHg 69%
21:00 +22°C° 0 mm 0 mps 717 mmHg 76%
22:00 +22°C° 0 mm 0 mps 716 mmHg 75%
23:00 +21°C° 0 mm 0 mps 716 mmHg 74%

Pasado mañana, 29 Julio, Jueves

Tiempo Temperatura Precipitaciones Viento Presión Humedad
00:00 +21°C° 0 mm 0 mps 716 mmHg 73%
01:00 +21°C° 0 mm 0 mps 716 mmHg 73%
02:00 +21°C° 0 mm 0 mps 716 mmHg 72%
03:00 +20°C° 0 mm 0 mps 716 mmHg 71%
04:00 +21°C° 0 mm 0 mps 716 mmHg 69%
05:00 +21°C° 0 mm 0 mps 716 mmHg 68%
06:00 +23°C° 0 mm 1 mps 716 mmHg 66%
07:00 +25°C° 0 mm 1 mps 716 mmHg 59%
08:00 +27°C° 0 mm 1 mps 716 mmHg 52%
09:00 +29°C° 0 mm 2 mps 717 mmHg 46%
10:00 +30°C° 0 mm 3 mps 717 mmHg 43%
11:00 +33°C° 0 mm 3 mps 717 mmHg 40%
12:00 +34°C° 0 mm 4 mps 717 mmHg 37%
13:00 +34°C° 0 mm 4 mps 716 mmHg 37%
14:00 +35°C° 0 mm 4 mps 716 mmHg 37%
15:00 +35°C° 0 mm 5 mps 715 mmHg 37%
16:00 +34°C° 0 mm 4 mps 715 mmHg 42%
17:00 +31°C° 0 mm 3 mps 715 mmHg 47%
18:00 +30°C° 0 mm 3 mps 715 mmHg 53%
19:00 +28°C° 0 mm 2 mps 715 mmHg 59%
20:00 +27°C° 0 mm 1 mps 715 mmHg 65%
21:00 +25°C° 0 mm 1 mps 715 mmHg 71%
22:00 +25°C° 0 mm 1 mps 715 mmHg 70%
23:00 +25°C° 0 mm 1 mps 715 mmHg 69%

30 Julio, Viernes

Tiempo Temperatura Precipitaciones Viento Presión Humedad
00:00 +25°C° 0 mm 1 mps 715 mmHg 69%
01:00 +25°C° 0 mm 1 mps 714 mmHg 66%
02:00 +25°C° 0 mm 2 mps 714 mmHg 63%
03:00 +25°C° 0 mm 2 mps 714 mmHg 60%
04:00 +25°C° 0 mm 2 mps 714 mmHg 56%
05:00 +26°C° 0 mm 2 mps 714 mmHg 52%
06:00 +26°C° 0 mm 2 mps 715 mmHg 48%
07:00 +28°C° 0 mm 2 mps 715 mmHg 41%
08:00 +30°C° 0 mm 3 mps 715 mmHg 33%
09:00 +34°C° 0 mm 3 mps 715 mmHg 25%
10:00 +35°C° 0 mm 4 mps 715 mmHg 22%
11:00 +37°C° 0 mm 4 mps 715 mmHg 19%
12:00 +39°C° 0 mm 5 mps 715 mmHg 17%
13:00 +39°C° 0 mm 6 mps 715 mmHg 16%
14:00 +40°C° 0 mm 6 mps 714 mmHg 16%
15:00 +40°C° 0 mm 7 mps 714 mmHg 15%
16:00 +39°C° 0 mm 6 mps 714 mmHg 17%
17:00 +37°C° 0 mm 5 mps 714 mmHg 19%
18:00 +36°C° 0 mm 4 mps 714 mmHg 21%
19:00 +33°C° 0 mm 3 mps 714 mmHg 29%
20:00 +29°C° 0 mm 2 mps 714 mmHg 37%
21:00 +27°C° 0 mm 1 mps 714 mmHg 45%
22:00 +26°C° 0 mm 1 mps 714 mmHg 48%
23:00 +25°C° 0 mm 1 mps 714 mmHg 52%

31 Julio, Sábado

Tiempo Temperatura Precipitaciones Viento Presión Humedad
00:00 +25°C° 0 mm 1 mps 714 mmHg 55%
01:00 +24°C° 0 mm 2 mps 714 mmHg 63%
02:00 +23°C° 0 mm 2 mps 714 mmHg 71%
03:00 +23°C° 0 mm 2 mps 714 mmHg 79%
04:00 +23°C° 0 mm 2 mps 714 mmHg 80%
05:00 +23°C° 0 mm 2 mps 715 mmHg 82%
06:00 +23°C° 0 mm 2 mps 715 mmHg 83%
07:00 +24°C° 0 mm 2 mps 715 mmHg 75%
08:00 +25°C° 0 mm 3 mps 715 mmHg 67%
09:00 +27°C° 0 mm 4 mps 715 mmHg 58%
10:00 +28°C° 0 mm 4 mps 715 mmHg 54%
11:00 +29°C° 0 mm 5 mps 715 mmHg 50%
12:00 +30°C° 0 mm 6 mps 715 mmHg 46%
13:00 +29°C° 0.1 mm 6 mps 715 mmHg 48%
14:00 +29°C° 0.1 mm 6 mps 714 mmHg 49%
15:00 +29°C° 0.1 mm 6 mps 714 mmHg 50%
16:00 +28°C° 0.7 mm 5 mps 714 mmHg 54%
17:00 +26°C° 0.7 mm 5 mps 715 mmHg 58%
18:00 +25°C° 0.7 mm 4 mps 715 mmHg 62%
19:00 +23°C° 0.2 mm 4 mps 716 mmHg 63%
20:00 +22°C° 0.2 mm 3 mps 716 mmHg 63%
21:00 +21°C° 0.2 mm 2 mps 717 mmHg 64%
22:00 +21°C° 0 mm 2 mps 717 mmHg 65%
23:00 +20°C° 0 mm 2 mps 717 mmHg 67%

1 Agosto, Domingo

Tiempo Temperatura Precipitaciones Viento Presión Humedad
00:00 +19°C° 0 mm 2 mps 717 mmHg 68%
01:00 +19°C° 0 mm 2 mps 717 mmHg 67%
02:00 +19°C° 0 mm 2 mps 717 mmHg 67%
03:00 +19°C° 0 mm 2 mps 717 mmHg 66%
04:00 +19°C° 0 mm 2 mps 717 mmHg 62%
05:00 +19°C° 0 mm 2 mps 717 mmHg 58%
06:00 +19°C° 0 mm 2 mps 717 mmHg 53%
07:00 +21°C° 0 mm 2 mps 717 mmHg 48%
08:00 +24°C° 0 mm 2 mps 717 mmHg 42%
09:00 +26°C° 0 mm 2 mps 718 mmHg 36%
10:00 +27°C° 0 mm 3 mps 718 mmHg 37%
11:00 +28°C° 0 mm 4 mps 717 mmHg 37%
12:00 +29°C° 0 mm 5 mps 717 mmHg 37%
13:00 +29°C° 0 mm 5 mps 717 mmHg 41%
14:00 +28°C° 0 mm 5 mps 717 mmHg 45%
15:00 +27°C° 0 mm 5 mps 717 mmHg 49%
16:00 +27°C° 0.1 mm 4 mps 716 mmHg 52%
17:00 +26°C° 0.1 mm 4 mps 716 mmHg 55%
18:00 +25°C° 0.1 mm 3 mps 716 mmHg 58%
19:00 +24°C° 0 mm 2 mps 716 mmHg 63%
20:00 +23°C° 0 mm 2 mps 717 mmHg 68%
21:00 +22°C° 0 mm 1 mps 717 mmHg 73%
22:00 +22°C° 0 mm 1 mps 717 mmHg 73%
23:00 +22°C° 0 mm 1 mps 716 mmHg 73%
Mostrar más

Necesitamos Su Consentimiento

Meteoprog y nuestros Proveedores de Servicios pueden almacenar y acceder a sus datos personales como cookies, identificadores de dispositivo u otras tecnologías similares de su dispositivo y procesar dichos datos para personalizar contenido y anuncios, además de ofrecer funciones de redes sociales y analizar el tráfico.

  • Almacenar y/o acceder a información en su dispositivo

    Se puede almacenar o acceder a cookies, identificadores de dispositivo u otra información de su dispositivo para los fines anteriormente indicados.

  • Anuncios y contenido personalizados, medición de anuncios y contenido, percepciones del público, y desarrollo de productos

    Los anuncios y el contenido pueden personalizarse en base a su perfil. Se pueden añadir más datos para personalizar mejor los anuncios y contenidos. Se puede medir el rendimiento de los anuncios y contenidos. Se puede obtener la percepción sobre el público que ha visto los anuncios y contenidos. Dichos datos pueden usarse para desarrollar o mejorar la experiencia del usuario, sistemas y software.

Al hacer clic en ‘Estoy De Acuerdo’ usted permitirá el uso de las cookies, identificadores de dispositivo, balizas web u otras tecnologías similares indicadas. Su configuración puede cambiarse desde el navegador de su dispositivo.

Para ciertos fines, los intereses legítimos pueden ser considerados por encima del consentimiento. Puede leer más sobre ello en nuestra Política de Privacidad y Cookies.